QFA337 YMML-YSCB

Flight info

Callsign QFA337
Flight time 0h 42m
Altitude 33000
Route ML H129 DOSEL Y59 ARRAN J42 CB
Aircraft B738/M-SABDFGRVYL/LB2

Departure

Time 2026-05-04 01:04
Airport Melbourne Airport (YMML)

Arrival

Time 2026-05-04 01:46
Airport Canberra Airport (YSCB)
Time Latitude Longitude Altitude Speed Heading
2026-05-04 00:45 -37.66828 144.85025 409 ft 0 kts 259°
2026-05-04 00:55 -37.66826 144.85039 409 ft 2 kts 262°
2026-05-04 00:55 -37.66824 144.85058 410 ft 2 kts 262°
2026-05-04 00:55 -37.66822 144.85077 410 ft 2 kts 262°
2026-05-04 00:55 -37.66820 144.85096 410 ft 1 kts 262°
2026-05-04 00:56 -37.66820 144.85095 410 ft 1 kts 274°
2026-05-04 00:56 -37.66810 144.85086 410 ft 1 kts 355°
2026-05-04 00:56 -37.66789 144.85089 410 ft 2 kts
2026-05-04 00:56 -37.66786 144.85089 410 ft 0 kts
2026-05-04 00:57 -37.66786 144.85090 410 ft 0 kts
2026-05-04 00:58 -37.66785 144.85090 410 ft 0 kts
2026-05-04 00:58 -37.66757 144.85092 410 ft 6 kts
2026-05-04 00:58 -37.66707 144.85086 409 ft 9 kts 352°
2026-05-04 00:59 -37.66625 144.85071 408 ft 12 kts 353°
2026-05-04 00:59 -37.66544 144.85048 408 ft 11 kts 317°
2026-05-04 00:59 -37.66535 144.84958 408 ft 11 kts 265°
2026-05-04 00:59 -37.66550 144.84850 405 ft 12 kts 245°
2026-05-04 01:00 -37.66621 144.84777 404 ft 13 kts 231°
2026-05-04 01:00 -37.66649 144.84645 399 ft 17 kts 263°
2026-05-04 01:00 -37.66666 144.84497 395 ft 17 kts 260°
2026-05-04 01:00 -37.66684 144.84346 392 ft 17 kts 262°
2026-05-04 01:01 -37.66705 144.84217 391 ft 13 kts 238°
2026-05-04 01:01 -37.66793 144.84193 390 ft 15 kts 171°
2026-05-04 01:01 -37.66914 144.84215 387 ft 19 kts 171°
2026-05-04 01:01 -37.67058 144.84242 384 ft 21 kts 172°
2026-05-04 01:02 -37.67209 144.84270 381 ft 22 kts 171°
2026-05-04 01:02 -37.67370 144.84300 378 ft 24 kts 171°
2026-05-04 01:02 -37.67538 144.84332 374 ft 25 kts 171°
2026-05-04 01:02 -37.67715 144.84365 368 ft 23 kts 171°
2026-05-04 01:03 -37.67822 144.84341 366 ft 14 kts 219°
2026-05-04 01:03 -37.67860 144.84218 363 ft 15 kts 262°
2026-05-04 01:03 -37.67877 144.84078 359 ft 16 kts 261°
2026-05-04 01:03 -37.67837 144.83969 359 ft 15 kts 340°
2026-05-04 01:04 -37.67636 144.83928 366 ft 58 kts 352°
2026-05-04 01:04 -37.66997 144.83809 385 ft 124 kts 352°
2026-05-04 01:04 -37.65992 144.83618 679 ft 156 kts 352°
2026-05-04 01:04 -37.64984 144.83441 1681 ft 145 kts 352°
2026-05-04 01:05 -37.64010 144.83264 2341 ft 149 kts 350°
2026-05-04 01:05 -37.62956 144.83045 2771 ft 165 kts 349°
2026-05-04 01:05 -37.61769 144.82809 3314 ft 177 kts 349°
2026-05-04 01:05 -37.60569 144.82580 3834 ft 189 kts 349°
2026-05-04 01:06 -37.59208 144.82387 4346 ft 206 kts 357°
2026-05-04 01:06 -37.57748 144.82832 4857 ft 229 kts 19°
2026-05-04 01:06 -37.56316 144.83828 5447 ft 243 kts 22°
2026-05-04 01:06 -37.54790 144.84877 5959 ft 257 kts 21°
2026-05-04 01:07 -37.53147 144.85912 6456 ft 272 kts 20°
2026-05-04 01:07 -37.51399 144.86968 6955 ft 287 kts 20°
2026-05-04 01:07 -37.49553 144.88075 7433 ft 302 kts 20°
2026-05-04 01:07 -37.47602 144.89246 7834 ft 319 kts 20°
2026-05-04 01:08 -37.45555 144.90488 8229 ft 335 kts 22°
2026-05-04 01:08 -37.43529 144.92106 8730 ft 354 kts 34°
2026-05-04 01:08 -37.41838 144.94433 9386 ft 368 kts 47°
2026-05-04 01:08 -37.40335 144.97057 10052 ft 375 kts 50°
2026-05-04 01:09 -37.38867 144.99783 10754 ft 380 kts 51°
2026-05-04 01:09 -37.37390 145.02541 11463 ft 384 kts 51°
2026-05-04 01:09 -37.35882 145.05317 12226 ft 387 kts 50°
2026-05-04 01:09 -37.34344 145.08103 12929 ft 392 kts 50°
2026-05-04 01:10 -37.32769 145.10916 13640 ft 397 kts 49°
2026-05-04 01:10 -37.31171 145.13747 14365 ft 402 kts 49°
2026-05-04 01:10 -37.29553 145.16601 15142 ft 405 kts 49°
2026-05-04 01:10 -37.27914 145.19484 15860 ft 410 kts 48°
2026-05-04 01:11 -37.26253 145.22400 16599 ft 414 kts 48°
2026-05-04 01:11 -37.24578 145.25340 17345 ft 417 kts 48°
2026-05-04 01:11 -37.22893 145.28297 18026 ft 421 kts 48°
2026-05-04 01:11 -37.21187 145.31287 18680 ft 426 kts 48°
2026-05-04 01:12 -37.19462 145.34307 19359 ft 429 kts 47°
2026-05-04 01:12 -37.17724 145.37351 20070 ft 431 kts 47°
2026-05-04 01:12 -37.15975 145.40410 20710 ft 435 kts 47°
2026-05-04 01:12 -37.14207 145.43496 21279 ft 440 kts 47°
2026-05-04 01:13 -37.12424 145.46604 21937 ft 442 kts 47°
2026-05-04 01:13 -37.10631 145.49727 22529 ft 445 kts 46°
2026-05-04 01:13 -37.08816 145.52882 23018 ft 451 kts 46°
2026-05-04 01:13 -37.06979 145.56072 23604 ft 453 kts 46°
2026-05-04 01:14 -37.05136 145.59273 24143 ft 457 kts 46°
2026-05-04 01:14 -37.03278 145.62497 24700 ft 460 kts 46°
2026-05-04 01:14 -37.01402 145.65749 25207 ft 464 kts 46°
2026-05-04 01:14 -36.99531 145.68992 25737 ft 466 kts 46°
2026-05-04 01:15 -36.97680 145.72197 26213 ft 469 kts 46°
2026-05-04 01:15 -36.95768 145.75504 26646 ft 473 kts 46°
2026-05-04 01:15 -36.93845 145.78828 27171 ft 474 kts 46°
2026-05-04 01:15 -36.91935 145.82138 27945 ft 469 kts 46°
2026-05-04 01:16 -36.90038 145.85423 28616 ft 466 kts 45°
2026-05-04 01:16 -36.88143 145.88701 29230 ft 464 kts 45°
2026-05-04 01:16 -36.86255 145.91958 29782 ft 464 kts 45°
2026-05-04 01:16 -36.84358 145.95223 30267 ft 464 kts 45°
2026-05-04 01:17 -36.82454 145.98493 30708 ft 464 kts 45°
2026-05-04 01:17 -36.80562 146.01739 31199 ft 462 kts 45°
2026-05-04 01:17 -36.78677 146.04972 31639 ft 461 kts 45°
2026-05-04 01:17 -36.76799 146.08189 32070 ft 460 kts 45°
2026-05-04 01:18 -36.74912 146.11417 32437 ft 461 kts 45°
2026-05-04 01:18 -36.73023 146.14644 32777 ft 462 kts 45°
2026-05-04 01:18 -36.71124 146.17883 32972 ft 465 kts 45°
2026-05-04 01:19 -36.67330 146.24354 32987 ft 461 kts 45°
2026-05-04 01:19 -36.63600 146.30710 32989 ft 463 kts 45°
2026-05-04 01:20 -36.59815 146.37142 32990 ft 461 kts 45°
2026-05-04 01:20 -36.56014 146.43588 32999 ft 462 kts 45°
2026-05-04 01:21 -36.52217 146.50016 32995 ft 462 kts 45°
2026-05-04 01:21 -36.48478 146.56337 32997 ft 462 kts 45°
2026-05-04 01:22 -36.44668 146.62758 32999 ft 463 kts 45°
2026-05-04 01:22 -36.40858 146.69176 33003 ft 462 kts 44°
2026-05-04 01:23 -36.37054 146.75568 33006 ft 461 kts 45°
2026-05-04 01:23 -36.33250 146.81949 33004 ft 461 kts 45°
2026-05-04 01:24 -36.29438 146.88329 33008 ft 462 kts 44°
2026-05-04 01:24 -36.25623 146.94703 33014 ft 463 kts 44°
2026-05-04 01:25 -36.21785 147.01099 33011 ft 464 kts 45°
2026-05-04 01:25 -36.18316 147.07890 33014 ft 474 kts 54°
2026-05-04 01:26 -36.15666 147.15418 33010 ft 482 kts 60°
2026-05-04 01:26 -36.13394 147.23264 33016 ft 487 kts 63°
2026-05-04 01:27 -36.11231 147.31141 33012 ft 484 kts 63°
2026-05-04 01:27 -36.09042 147.39028 33014 ft 489 kts 62°
2026-05-04 01:28 -36.06815 147.46924 33017 ft 485 kts 62°
2026-05-04 01:28 -36.04570 147.54776 33017 ft 487 kts 62°
2026-05-04 01:29 -36.02314 147.62609 32716 ft 483 kts 62°
2026-05-04 01:29 -36.01196 147.66487 32246 ft 478 kts 62°
2026-05-04 01:29 -36.00088 147.70324 31631 ft 477 kts 62°
2026-05-04 01:29 -35.98972 147.74170 30859 ft 479 kts 62°
2026-05-04 01:30 -35.97848 147.78023 30029 ft 481 kts 62°
2026-05-04 01:30 -35.96715 147.81896 29097 ft 484 kts 62°
2026-05-04 01:30 -35.95573 147.85793 28137 ft 487 kts 62°
2026-05-04 01:30 -35.94423 147.89718 27134 ft 491 kts 62°
2026-05-04 01:31 -35.93263 147.93670 26049 ft 495 kts 62°
2026-05-04 01:31 -35.92095 147.97648 24985 ft 498 kts 62°
2026-05-04 01:31 -35.90917 148.01657 23845 ft 502 kts 62°
2026-05-04 01:31 -35.89749 148.05647 23155 ft 488 kts 62°
2026-05-04 01:32 -35.88636 148.09492 22621 ft 471 kts 62°
2026-05-04 01:32 -35.87541 148.13258 22032 ft 465 kts 62°
2026-05-04 01:32 -35.86449 148.16987 21768 ft 466 kts 62°
2026-05-04 01:32 -35.85334 148.20746 21311 ft 470 kts 62°
2026-05-04 01:33 -35.84261 148.24356 20730 ft 467 kts 62°
2026-05-04 01:33 -35.83155 148.28077 20090 ft 461 kts 62°
2026-05-04 01:33 -35.82063 148.31757 19420 ft 457 kts 62°
2026-05-04 01:33 -35.80981 148.35402 18769 ft 453 kts 63°
2026-05-04 01:34 -35.79908 148.39014 18103 ft 448 kts 63°
2026-05-04 01:34 -35.78849 148.42583 17471 ft 444 kts 62°
2026-05-04 01:34 -35.77795 148.46125 16812 ft 440 kts 63°
2026-05-04 01:34 -35.76749 148.49630 16148 ft 436 kts 63°
2026-05-04 01:35 -35.75712 148.53105 15525 ft 431 kts 62°
2026-05-04 01:35 -35.74689 148.56533 14874 ft 427 kts 62°
2026-05-04 01:35 -35.73670 148.59932 14224 ft 423 kts 62°
2026-05-04 01:35 -35.72660 148.63295 13569 ft 418 kts 62°
2026-05-04 01:36 -35.71664 148.66622 12911 ft 414 kts 62°
2026-05-04 01:36 -35.70680 148.69915 12263 ft 410 kts 62°
2026-05-04 01:36 -35.69708 148.73173 11605 ft 406 kts 63°
2026-05-04 01:36 -35.68741 148.76404 10914 ft 402 kts 62°
2026-05-04 01:37 -35.67782 148.79609 10205 ft 399 kts 63°
2026-05-04 01:37 -35.66829 148.82782 9528 ft 395 kts 63°
2026-05-04 01:37 -35.65887 148.85917 8824 ft 386 kts 63°
2026-05-04 01:37 -35.64983 148.88941 8351 ft 372 kts 64°
2026-05-04 01:38 -35.64106 148.91873 8033 ft 360 kts 64°
2026-05-04 01:38 -35.63263 148.94696 7885 ft 344 kts 64°
2026-05-04 01:38 -35.62460 148.97384 7748 ft 329 kts 63°
2026-05-04 01:38 -35.61687 148.99967 7599 ft 316 kts 63°
2026-05-04 01:39 -35.60940 149.02450 7454 ft 304 kts 63°
2026-05-04 01:39 -35.60223 149.04833 7312 ft 293 kts 63°
2026-05-04 01:39 -35.59520 149.07140 7182 ft 287 kts 62°
2026-05-04 01:39 -35.58794 149.09413 7045 ft 282 kts 62°
2026-05-04 01:40 -35.58080 149.11606 6919 ft 272 kts 61°
2026-05-04 01:40 -35.57394 149.13721 6804 ft 262 kts 62°
2026-05-04 01:40 -35.56727 149.15756 6685 ft 251 kts 59°
2026-05-04 01:40 -35.55893 149.17560 6528 ft 235 kts 43°
2026-05-04 01:41 -35.54644 149.18705 6256 ft 220 kts 17°
2026-05-04 01:41 -35.53223 149.19323 5984 ft 213 kts
2026-05-04 01:41 -35.51781 149.19476 5721 ft 205 kts 355°
2026-05-04 01:41 -35.50363 149.19441 5469 ft 202 kts 356°
2026-05-04 01:42 -35.48977 149.19426 5317 ft 195 kts 356°
2026-05-04 01:42 -35.47651 149.19438 5045 ft 185 kts 358°
2026-05-04 01:42 -35.46389 149.19455 4851 ft 177 kts 356°
2026-05-04 01:42 -35.45192 149.19448 4541 ft 167 kts 356°
2026-05-04 01:43 -35.44057 149.19444 4344 ft 162 kts 358°
2026-05-04 01:43 -35.42924 149.19443 4149 ft 160 kts 357°
2026-05-04 01:43 -35.41836 149.19443 3891 ft 154 kts 358°
2026-05-04 01:43 -35.40805 149.19448 3747 ft 143 kts 357°
2026-05-04 01:44 -35.39817 149.19444 3494 ft 138 kts 358°
2026-05-04 01:44 -35.38865 149.19442 3330 ft 137 kts 358°
2026-05-04 01:44 -35.37898 149.19444 3150 ft 139 kts 358°
2026-05-04 01:44 -35.36947 149.19447 2959 ft 135 kts 358°
2026-05-04 01:45 -35.36003 149.19445 2781 ft 136 kts 358°
2026-05-04 01:45 -35.35061 149.19445 2602 ft 135 kts 358°
2026-05-04 01:45 -35.33182 149.19446 2251 ft 135 kts 359°
2026-05-04 01:46 -35.32224 149.19443 2070 ft 139 kts 359°
2026-05-04 01:46 -35.31273 149.19447 1894 ft 134 kts 359°
2026-05-04 01:46 -35.30460 149.19443 1879 ft 89 kts
2026-05-04 01:46 -35.30024 149.19445 1880 ft 41 kts 359°
2026-05-04 01:47 -35.29771 149.19443 1879 ft 31 kts 359°
2026-05-04 01:47 -35.29633 149.19443 1878 ft 9 kts 359°
2026-05-04 01:47 -35.29584 149.19396 1877 ft 10 kts 290°
2026-05-04 01:47 -35.29580 149.19305 1876 ft 11 kts 269°
2026-05-04 01:48 -35.29639 149.19246 1874 ft 12 kts 188°
2026-05-04 01:48 -35.29729 149.19244 1873 ft 13 kts 180°
2026-05-04 01:48 -35.29828 149.19244 1872 ft 15 kts 180°
2026-05-04 01:48 -35.29936 149.19244 1873 ft 15 kts 180°
2026-05-04 01:49 -35.30046 149.19243 1874 ft 15 kts 180°
2026-05-04 01:49 -35.30154 149.19242 1875 ft 15 kts 182°
2026-05-04 01:49 -35.30254 149.19238 1875 ft 14 kts 182°
2026-05-04 01:49 -35.30365 149.19237 1875 ft 17 kts 179°
2026-05-04 01:50 -35.30490 149.19238 1875 ft 18 kts 181°
2026-05-04 01:50 -35.30616 149.19237 1875 ft 17 kts 180°
2026-05-04 01:50 -35.30715 149.19238 1875 ft 8 kts 180°
2026-05-04 01:50 -35.30746 149.19193 1874 ft 6 kts 258°
2026-05-04 01:51 -35.30753 149.19148 1873 ft 2 kts 258°
2026-05-04 01:51 -35.30754 149.19142 1873 ft 0 kts 258°